Regional Weather Roundup
Issued by NWS

Home | Current Version | Previous Version | Graphics & Text | Print | Product List | Glossary On
Versions: 1 2 3 4 5 6 7 8 9 10 11 12 13 14 15 16 17 18 19 20 21 22 23 24 25 26 27 28 29 30 31 32 33 34 35 36 37 38 39 40 41 42 43 44 45 46 47 48 49 50
162
ASUS44 KLIX 252205
RWRLA
LOUISIANA WEATHER ROUNDUP
NATIONAL WEATHER SERVICE NEW ORLEANS LA
400 PM CST TUE NOV 25 2014

NOTE: "FAIR" INDICATES FEW OR NO CLOUDS BELOW 12,000 FEET WITH NO
      SIGNIFICANT WEATHER AND/OR OBSTRUCTIONS TO VISIBILITY.
      SKY/WX - SKY CONDITION AND SIGNIFICANT WEATHER.
      TMP - AIR TEMPERATURE.    DP   - DEWPOINT TEMPERATURE.
      RH  - RELATIVE HUMIDITY.  PRES - PRESSURE.
      HX  - HEAT INDEX.         WCI  - WIND CHILL INDEX.

*  THESE STATIONS ARE NOT NWS OR FAA STATIONS AND ARE NOT UNDER
   NWS QUALITY CONTROL.

LAZ040-048-061>063-065-066-069-252300-
SOUTHEAST LOUISIANA

CITY           SKY/WX    TMP DP  RH WIND       PRES   REMARKS
N.O. AUDUBON     N/A     56  36  46 MISG        N/A
N.O. INTL ARPT CLOUDY    55  33  43 N9        30.15F
N.O. LAKEFRONT CLOUDY    56  33  42 N12       30.17R
N.O. DOWNTOWN* CLOUDY    55  30  38 N6        30.15F
SLIDELL        CLOUDY    53  33  46 N3        30.15S
BATON ROUGE    CLOUDY    53  27  36 N6        30.17S
BOOTHVILLE     CLOUDY    56  38  50 NW16G28   30.12R
BELLE CHASSE   CLOUDY    56  29  35 N8        30.14R
BOGALUSA*        N/A     54  34  47 N5        30.17R
NEW ROADS*     FAIR      51  32  47 NW7       30.19S
GONZALES*      MOCLDY    54  29  38 N8        30.16S
HAMMOND*       CLOUDY    54  32  43 NW5       30.17S
HOUMA*         NOT AVBL
PORT FOURCHON* MOCLDY    55  32  41 N14G20    30.18F

$$

LAZ041-044-053-054-252300-
SOUTHWEST LOUISIANA

CITY           SKY/WX    TMP DP  RH WIND       PRES   REMARKS
LAKE CHARLES   SUNNY     58  32  37 N8        30.21S
LAFAYETTE      CLOUDY    54  32  43 NW10      30.20R
PATTERSON      CLOUDY    54  36  50 NW6       30.19R
SALT POINT       N/A     60  36  40 VRB6      30.16R
NEW IBERIA     CLOUDY    55  31  39 N10       30.20R
CHENAULT AIRPK NOT AVBL

$$

LAZ027-028-252300-
CENTRAL LOUISIANA

CITY           SKY/WX    TMP DP  RH WIND       PRES   REMARKS
FORT POLK      MOSUNNY   58  29  33 NW6       30.20S
ALEXANDRIA INT MOSUNNY   56  30  37 NW8       30.19S
ALEXANDRIA     MOSUNNY   56  34  43 VRB5      30.20S

$$

LAZ001-002-252300-
NORTHWEST LOUISIANA

CITY           SKY/WX    TMP DP  RH WIND       PRES   REMARKS
SHREVEPORT     MOSUNNY   59  25  27 CALM      30.18F
BARKSDALE AFB  SUNNY     59  24  26 NW6       30.19S
DTN SHREVEPORT SUNNY     58  22  24 CALM      30.19S

$$

LAZ014-016-252300-
NORTHEAST LOUISIANA

CITY           SKY/WX    TMP DP  RH WIND       PRES   REMARKS
MONROE         MOSUNNY   55  27  34 NW3       30.20F
TALLULAH       CLOUDY    50  30  46 NW7       30.19S

$$




USA.gov is the U.S. government's official web portal to all federal, state and local government web resources and services.